Regional Weather Roundup
Issued by NWS Charleston, SC

Current Version | Previous Version | Text Only | Print | Product List | Glossary Off
Versions: 1 2 3 4 5 6 7 8 9 10 11 12 13 14 15 16 17 18 19 20 21 22 23 24 25 26 27 28 29 30 31 32 33 34 35 36 37 38 39 40 41 42 43 44 45 46 47 48 49 50

000
ASUS42 KCHS 221612
RWRCHS

REGIONAL WEATHER ROUNDUP
NATIONAL WEATHER SERVICE CHARLESTON SC
1200 PM EDT SAT JUL 22 2017

NOTE: "FAIR" INDICATES FEW OR NO CLOUDS BELOW 12,000 FEET WITH NO
SIGNIFICANT WEATHER AND/OR OBSTRUCTIONS TO VISIBILITY.

NOT ALL STATIONS ARE QUALITY CONTROLLED. USE DATA WITH CAUTION...
ESPECIALLY DEWPOINT OBSERVATIONS.

SCZ027-030-031-034>040-042>050-221700-
...SOUTHEAST SOUTH CAROLINA...

CITY           SKY/WX    TMP DP  RH WIND       PRES   REMARKS
N CHARLESTON   MOSUNNY   89  73  59 W9        30.05S HX  97
WATERFRONT PRK   N/A     87  75  67 VRB3      30.03F HX  96
JOHNS ISLAND   FAIR      90  77  66 SW8       30.05S HX 102
PINOPOLIS        N/A     86  75  70 CALM      29.98F HX  95
MONCKS CORNER  FAIR      88  72  58 W6        30.04F HX  94
SUMMERVILLE    FAIR      88  73  62 SW5       30.05F HX  96
BEAUFORT MCAS  SUNNY     88  74  63 CALM      30.06F HX  96
BEAUFORT ARPT  FAIR      88  72  58 SW7       30.05F HX  94
HILTON HEAD IS SUNNY     88  72  58 SW7       30.07F HX  94
WALTERBORO     SUNNY     88  72  58 SW7       30.06S HX  94
ALLENDALE      NOT AVBL

...SOUTHERN MIDLANDS AND PEE DEE...

CITY           SKY/WX    TMP DP  RH WIND       PRES   REMARKS
GEORGETOWN     FAIR      88  73  62 W5        30.05F HX  96
KINGSTREE      FAIR      88  75  66 SW3       30.04S HX  97
ORANGEBURG     SUNNY     87  72  60 SW8       30.04F HX  93
BARNWELL       FAIR      90  77  66 SW7       30.05S HX 102
AIKEN          FAIR      86  73  66 SW8       30.07F HX  93
MANNING        FAIR      86  77  74 W6        30.04F HX  97
COLUMBIA       MOSUNNY   90  72  55 S8        30.01F HX  97
SUMTER         SUNNY     89  73  58 SW9       30.00F HX  96
FLORENCE       SUNNY     89  76  65 SW8       30.02F HX 100
MYRTLE BEACH   MOSUNNY   90  75  62 S10       30.06S HX 100
N MYRTLE BEACH SUNNY     86  76  71 S13       30.04F HX  96

$$

GAZ063-065-086>088-099>101-113>116-118-119-134>141-150-221700-
...SOUTHEAST GEORGIA...

CITY           SKY/WX    TMP DP  RH WIND       PRES   REMARKS
SAVANNAH ARPT  MOSUNNY   90  71  53 VRB3      30.06F HX  96
HUNTER AAF     SUNNY     89  72  56 NW5       30.04F HX  95
FORT STEWART   SUNNY     87  70  56 SW5       30.04F HX  92
STATESBORO     SUNNY     87  73  61 SW6       30.06F HX  94
SYLVANIA       SUNNY     87  76  69 CALM      30.06F HX  97
CLAXTON        FAIR      87  75  66 SE3       30.06F HX  97

...CSRA...CENTRAL AND FAR SOUTHEAST GEORGIA...

CITY           SKY/WX    TMP DP  RH WIND       PRES   REMARKS
THOMSON        SUNNY     87  74  65 W7        30.09F HX  95
AUGUSTA-BUSH   SUNNY     89  77  67 S10       30.02F HX 101
AUGUSTA-DANIEL SUNNY     89  71  55 S9        30.04F HX  95
SWAINSBORO     FAIR      86  73  66 S5        30.06F HX  93
VIDALIA        SUNNY     88  75  66 SW3       30.07F HX  97
EASTMAN        PTSUNNY   87  65  47 W5        30.09F
HAZLEHURST     FAIR      87  78  75 W5        30.06F HX 100
ALMA           SUNNY     88  74  63 SW6       30.07F HX  96
WAYCROSS       PTSUNNY   90  78  68 CALM      30.07F HX 104
JESUP          NOT AVBL
BAXLEY         FAIR      88  79  74 SW7       30.07S HX 102
BRUNSWICK      SUNNY     88  75  66 W3        30.08F HX  97
SAINT SIMONS   SUNNY     89  73  59 SW6       30.07F HX  97

$$

SCZ027-028-034-036>038-045-046-048>050-GAZ119-141-221700-
...LAKE AND SUPPLEMENTAL COASTAL OBSERVATIONS...

STATION/POSITION TIME  TEMP    WIND        PRES    WAVE   SWELL
                       AIR SEA DIR/SP/G            HT/PER HT/PER/DIR
                 (UTC) (F)     (DEG/KT/KT) (MB)    (FT/S) (FT/S/D)
WINYAH BAY       1445   85     220/  3     1018.0
LAKE MURRAY      NOT AVBL
ACE BASIN NERRS  NOT AVBL
FORT PULASKI     1548   85 86  310/  4/  6 1018.4F
SAPELO ISLAND    1500   86        CALM     1019.0

$$

ANZ835-935-AMZ111-154-330-350-352-354-370-450-454-472-221700-
...C-MAN AND BUOY OBSERVATIONS...

STATION/POSITION TIME  TEMP    WIND        PRES    WAVE   SWELL
                       AIR SEA DIR/SP/G            HT/PER HT/PER/DIR
                 (UTC) (F)     (DEG/KT/KT) (MB)    (FT/S) (FT/S/D)
BUOY 41004       1550   83 84  240/  8/  8 1017.8R   4/ 9   3/130/ 9
BUOY 41008       1450   80 82  250/  8/ 10 1018.4    2/ 9   2/100/ 9
FOLLY BEACH CMAN 1500   84     200/  9/ 10 1018.5S
CAPERS NEARSHORE 1508   82 83  230/ 10/ 12 1017.7S
FRIPP NEARSHORE  1508   83 85  230/  6/ 10 1018.0R


STATION/POSITION TIME  TEMP    WIND        PRES    WAVE   SWELL
                       AIR SEA DIR/SP/G            HT/PER HT/PER/DIR
                 (UTC) (F)     (DEG/KT/KT) (MB)    (FT/S) (FT/S/D)
5E ST. MARYS GA  1530      83                N/A     2/ 9
FRYING PAN BUOY  1550   83 84  230/ 12/ 16 1017.5F   3/ 9   2/130/ 9
BUOY 41025       1550   82 83  240/ 19/ 21 1015.9F   4/ 9   2/130/ 9
CAPE LOOKOUT NC  1500   83     230/ 10/ 13 1016.6R
BUOY 41002       1450   83 83  220/ 12/ 14 1019.6    4/10   3/110/10
BUOY 41010       1550   84 85  220/ 12/ 16 1019.5S   3/ 9   2/ 90/ 9
ST AUGUSTINE FL  1600   81 80  130/ 10/ 11 1018.9F


$$




USA.gov is the U.S. government's official web portal to all federal, state and local government web resources and services.